Regional Weather Roundup
Issued by NWS

Home | Current Version | Previous Version | Graphics & Text | Print | Product List | Glossary On
Versions: 1 2 3 4 5 6 7 8 9 10 11 12 13 14 15 16 17 18 19 20 21 22 23 24 25 26 27 28 29 30 31 32 33 34 35 36 37 38 39 40 41 42 43 44 45 46 47 48 49 50
000
ASUS45 KCYS 012010
RWRWY

WYOMING REGIONAL WEATHER ROUNDUP
NATIONAL WEATHER SERVICE CHEYENNE WY
200 PM MDT MON JUN 01 2015

NOTE:  "FAIR" INDICATES FEW OR NO CLOUDS BELOW 12,000 FEET
WITH NO SIGNIFICANT WEATHER AND/OR OBSTRUCTIONS TO VISIBILITY.

WYZ001-012100-
...YELLOWSTONE NATIONAL PARK...

CITY           SKY/WX    TMP DP  RH WIND       PRES   REMARKS
LK YELLOWSTONE   N/A     65  38  36 VRB5      30.09F
W YELLOWSTONE  NOT AVBL

$$
WYZ002>013-054>058-071-098>099-012100-
...NORTHERN WYOMING...

CITY           SKY/WX    TMP DP  RH WIND       PRES   REMARKS
JACKSON        SUNNY     75  43  31 S9        29.98F
CODY           PTSUNNY   75  52  43 SE9       29.90F
GREYBULL       PTSUNNY   84  45  25 S9G21     29.84F
WORLAND        CLOUDY    83  53  35 S8        29.86F
SHERIDAN       CLOUDY    79  59  50 CALM      29.87F
BUFFALO        CLOUDY    76  53  44 S7        29.93F
GILLETTE       MOSUNNY   83  53  35 MISG      29.89F
HULETT         FAIR      84  50  30 S12       29.91F
NEWCASTLE      FAIR      81  52  36 MISG      29.93F

$$
WYZ014>020-022>026-101>103-012100-
...CENTRAL WYOMING...

CITY           SKY/WX    TMP DP  RH WIND       PRES   REMARKS
BIG PINEY      MOSUNNY   77  39  25 S21G26    30.05F
PINEDALE       MOSUNNY   72  34  25 S20       30.07F
DUBOIS         PTSUNNY   70  37  30 E7        30.03F
LANDER         PTSUNNY   81  49  32 SW9G17    29.92F
RIVERTON       CLOUDY    82  46  28 S13       29.95F
CASPER         MOSUNNY   82  42  24 SW18G28   29.97F
DOUGLAS        MOSUNNY   79  50  36 CALM      29.97F

$$
WYZ021-027>030-104>119-012100-
...SOUTHERN WYOMING...

CITY           SKY/WX    TMP DP  RH WIND       PRES   REMARKS
EVANSTON       SUNNY     77  29  17 SW31G40   30.06F
KEMMERER       MOSUNNY   75  27  16 SW20G32   30.08F
FORT BRIDGER   SUNNY     75  32  20 SW10G21   30.09F
ROCK SPRINGS   MOSUNNY   77  42  28 S15       30.06F
DIXON          PTSUNNY   78  42  27 SW7       30.10F
RAWLINS        MOSUNNY   78  37  22 SW9G16    30.09F
SARATOGA       FAIR      68  48  49 E6        30.13S
LARAMIE        PTSUNNY   67  45  45 E8        30.15F
CHEYENNE       PTSUNNY   79  48  33 S7        30.07F
TORRINGTON     MOSUNNY   85  57  38 SE10      29.94F
PINE BLUFFS    FAIR      81  46  30 SW13G18   30.03F

$$


USA.gov is the U.S. government's official web portal to all federal, state and local government web resources and services.